Weather History for KTUS - July, 2013

Change the Weather History Date:

Tuesday, July 16, 2013

  Actual Average Record
Temperature  
Mean Temperature 84 °F 87 °F  
Max Temperature 92 °F 100 °F 110 °F (2003)
Min Temperature 75 °F 75 °F 64 °F (1905)
Degree Days  
Heating Degree Days 0 0  
Month to date heating degree days 0 0  
Since 1 June heating degree days 0 0  
Since 1 July heating degree days 0 0  
Cooling Degree Days 19 22  
Month to date cooling degree days 394 364  
Year to date cooling degree days 1846 1460  
Since 1 June cooling degree days 1135 958  
Growing Degree Days 33 (Base 50)    
Moisture  
Dew Point 65 °F    
Average Humidity 59    
Maximum Humidity 79    
Minimum Humidity 38    
Precipitation  
Precipitation 0.14 in 0.08 in 1.90 in (1919)
Month to date precipitation 1.76 0.89  
Year to date precipitation 3.53 4.16  
Snow  
Snow 0.00 in - - ()
Month to date snowfall 0.0  
Snow Depth 0.00 in    
Sea Level Pressure  
Sea Level Pressure 29.88 in    
Wind  
Wind Speed 12 mph (ESE)    
Max Wind Speed 24 mph    
Max Gust Speed 30 mph    
Visibility 9 miles    
Events Rain , Thunderstorm    
T = Trace of Precipitation, MM = Missing Value Source: NWS Daily Summary

Daily Weather History Graph

Daily Weather History Graph

Search for Another Location

Airport or City:

Trip Planner

Search our weather history database for the weather conditions in past years. The results will help you decide how hot, cold, wet, or windy it might be!

Date:

Astronomy

Jul. 16, 2013 Rise Set
Actual Time 5:28 AM MST 7:30 PM MST
Civil Twilight 5:01 AM MST 7:58 PM MST
Nautical Twilight 4:27 AM MST 8:31 PM MST
Astronomical Twilight 3:51 AM MST 9:07 PM MST
Moon 1:23 PM MST (7/16) No Moon Set
Length of Visible Light 14h 56m
Length of Day
14h 01m
First Quarter, 57% of the Moon is Illuminated
Jul 16
First Quarter
Jul 22
Full
Jul 29
Last Quarter
Aug 6
New
Aug 14
First Quarter

Hourly Weather History & Observations

Time (MST) Temp. Heat Index Dew Point Humidity Pressure Visibility Wind Dir Wind Speed Gust Speed Precip Events Conditions
12:53 AM 81.0 °F 82.7 °F 64.9 °F 58% 29.78 in 10.0 mi ESE 20.7 mph 25.3 mph N/A   Clear
1:53 AM 79.0 °F - 66.0 °F 64% 29.81 in 10.0 mi ENE 12.7 mph - N/A   Partly Cloudy
2:53 AM 80.1 °F 81.9 °F 64.9 °F 60% 29.80 in 10.0 mi East 12.7 mph - N/A   Partly Cloudy
3:53 AM 78.1 °F - 64.9 °F 64% 29.80 in 10.0 mi ESE 19.6 mph - N/A   Clear
4:53 AM 78.1 °F - 64.9 °F 64% 29.82 in 10.0 mi ESE 12.7 mph - N/A   Mostly Cloudy
5:53 AM 78.1 °F - 66.0 °F 66% 29.84 in 10.0 mi ESE 13.8 mph - N/A   Clear
6:53 AM 80.1 °F 81.9 °F 64.9 °F 60% 29.84 in 10.0 mi SE 10.4 mph - N/A   Clear
7:53 AM 82.0 °F 83.1 °F 63.0 °F 52% 29.86 in 10.0 mi SSE 6.9 mph - N/A   Partly Cloudy
8:53 AM 81.0 °F 83.0 °F 66.0 °F 60% 29.88 in 10.0 mi East 11.5 mph - N/A   Partly Cloudy
9:53 AM 82.9 °F 85.0 °F 66.0 °F 56% 29.89 in 10.0 mi East 8.1 mph - N/A   Overcast
10:53 AM 84.9 °F 86.6 °F 64.9 °F 51% 29.88 in 10.0 mi East 9.2 mph - N/A   Mostly Cloudy
11:53 AM 88.0 °F 89.6 °F 64.9 °F 46% 29.87 in 10.0 mi ESE 4.6 mph - N/A   Scattered Clouds
12:53 PM 90.0 °F 91.3 °F 64.0 °F 42% 29.85 in 10.0 mi East 8.1 mph - N/A   Clear
1:53 PM 91.0 °F 91.9 °F 63.0 °F 39% 29.84 in 10.0 mi NE 5.8 mph - N/A Thunderstorm Scattered Clouds
2:20 PM 90.0 °F 91.7 °F 64.9 °F 43% 29.98 in 10.0 mi ENE 18.4 mph - N/A   Scattered Clouds
2:53 PM 87.1 °F 88.3 °F 64.0 °F 46% 29.84 in 10.0 mi East 12.7 mph - N/A   Partly Cloudy
3:26 PM 87.1 °F 88.9 °F 64.9 °F 48% 29.99 in 10.0 mi SSE 11.5 mph 19.6 mph N/A Thunderstorm Scattered Clouds
3:53 PM 84.9 °F 86.6 °F 64.9 °F 51% 29.86 in 10.0 mi South 11.5 mph - N/A   Overcast
4:53 PM 84.9 °F 86.1 °F 64.0 °F 49% 29.85 in 10.0 mi ESE 16.1 mph - N/A   Scattered Clouds
5:53 PM 82.0 °F 83.8 °F 64.9 °F 56% 29.86 in 10.0 mi ESE 18.4 mph 25.3 mph N/A   Scattered Clouds
6:53 PM 81.0 °F 82.5 °F 64.0 °F 56% 29.87 in 10.0 mi SE 17.3 mph - N/A   Overcast
7:53 PM 81.0 °F 83.0 °F 66.0 °F 60% 29.89 in 10.0 mi SSE 12.7 mph - N/A   Overcast
8:53 PM 75.9 °F - 69.1 °F 79% 29.92 in 2.5 mi South 17.3 mph 23.0 mph 0.12 in Rain Heavy Rain
9:00 PM 75.9 °F - 68.0 °F 76% 30.05 in 5.0 mi South 15.0 mph - 0.02 in Rain Light Rain
9:53 PM 75.9 °F - 69.1 °F 79% 29.95 in 5.0 mi SSE 10.4 mph - 0.02 in   Haze
10:53 PM 75.9 °F - 68.0 °F 76% 29.96 in 10.0 mi SE 8.1 mph - N/A   Clear
11:53 PM 77.0 °F - 66.9 °F 71% 29.95 in 10.0 mi SE 9.2 mph - N/A   Scattered Clouds